{"data":{"norad_id":50165,"epoch":"2026-09-19T22:10:08.181120Z","epoch_age_seconds":94503,"freshness":"FRESH","line1":"1 50165U 21125K   26262.92370580  .00000004  00000+0  11242-4 0  9997","line2":"2 50165  53.1597  94.0631 0001138  92.7776 267.3357 15.34393577266007","mean_motion":15.34393577,"eccentricity":0.0001138,"inclination_deg":53.1597,"raan_deg":94.0631,"arg_perigee_deg":92.7776,"mean_anomaly_deg":267.3357,"bstar":1.1242e-5,"rev_number":26600,"period_min":93.848150929792,"perigee_km":461.94384099144,"apogee_km":463.50082057513,"semimajor_km":6840.8593307833,"source":"CELESTRAK","updated_at":"2026-09-20T09:00:39.413824Z"}}